Regional Weather Roundup
Issued by NWS

Home | Current Version | Previous Version | Text Only | Print | Product List | Glossary On
Versions: 1 2 3 4 5 6 7 8 9 10 11 12 13 14 15 16 17 18 19 20 21 22 23 24 25 26 27 28 29 30 31 32 33 34 35 36 37 38 39 40 41 42 43 44 45 46 47 48 49 50
000
ASUS43 KIND 182009
RWRIN

WEATHER ROUNDUP FOR INDIANA
NATIONAL WEATHER SERVICE INDIANAPOLIS IN
400 PM EDT THU SEP 18 2014

NOTE: "FAIR" INDICATES FEW OR NO CLOUDS BELOW 12,000 FEET WITH NO
SIGNIFICANT WEATHER AND/OR OBSTRUCTIONS TO VISIBILITY.

* - STATION DOES NOT REPORT WEATHER SUCH AS PRECIPITATION OR FOG.

+ - STATION NOT QUALITY CONTROLLED BY THE NATIONAL WEATHER SERVICE.
    USE DATA WITH CAUTION...ESPECIALLY DEWPOINT AND RELATIVE
    HUMIDITY OBSERVATIONS.

INZ001>003-010>013-019-020-182100-
NORTHWEST INDIANA

CITY           SKY/WX    TMP DP  RH WIND       PRES   REMARKS
GARY /AIRPORT/ SUNNY     68  52  56 NE12      30.13F
KNOX *+        SUNNY     71  48  43 E9        30.10F
LA PORTE +     SUNNY     71  47  42 N9        30.11F
MICHIGAN CITY+ SUNNY     66  50  55 N10       30.12F
MONTICELLO +   SUNNY     70  50  48 E6        30.08F
RENSSELAER +   SUNNY     72  46  40 NE8G18    30.10S
VALPARAISO     SUNNY     72  49  44 NE10      30.11F

$$

LMZ046-743>745-182100-
SOUTHERN LAKE MICHIGAN

STATION/POSITION TIME  TEMP WIND        PRES
                       AIR  DIR/SP/G
                 (UTC) (F)  (DEG/KT/KT) (MB)
MICHIGAN CITY    2000   63  350/ 15/ 16   N/A

$$

INZ004-005-014>016-021>024-182100-
NORTH CENTRAL INDIANA

CITY           SKY/WX    TMP DP  RH WIND       PRES   REMARKS
ELKHART        SUNNY     72  46  40 CALM      30.12F
GOSHEN         SUNNY     71  50  47 NE9       30.11F
LOGANSPORT +   SUNNY     70  45  40 NE9       30.10F
PERU/GRISSOM   SUNNY     71  51  49 NE8       30.09F
ROCHESTER +    SUNNY     73  46  38 E8        30.10F
SOUTH BEND     SUNNY     72  46  39 E6        30.12F
WARSAW +       SUNNY     70  50  49 E8        30.11F

$$

INZ006>009-017-018-025>027-182100-
NORTHEAST INDIANA

CITY           SKY/WX    TMP DP  RH WIND       PRES   REMARKS
ANGOLA *+      SUNNY     72  46  40 VRB5      30.12S
AUBURN +       SUNNY     72  45  37 NE8G16    30.12S
FORT WAYNE     MOSUNNY   70  49  47 NE9       30.11F
HUNTINGTON +   SUNNY     69  51  51 NE8       30.10F

$$

INZ028-029-035-036-043>045-051>053-182100-
WEST CENTRAL INDIANA

CITY           SKY/WX    TMP DP  RH WIND       PRES   REMARKS
GREENCASTLE +  SUNNY     70  48  46 SE3       30.07F
LAFAYETTE      SUNNY     70  47  43 E5        30.08F
TERRE HAUTE    SUNNY     74  48  39 E7        30.06F

$$

INZ030>032-037>040-046>048-054>057-064-065-182100-
CENTRAL INDIANA

CITY           SKY/WX    TMP DP  RH WIND       PRES   REMARKS
CP ATTERBURY + SUNNY     72  45  37 NE7       30.07F
COLUMBUS       SUNNY     72  46  40 E6        30.07F
FRANKFORT +    SUNNY     74  48  40 E3        30.09F
GREENWOOD *+   SUNNY     73  50  43 NE9       30.07
INDIANAPOLIS   MOSUNNY   71  46  40 VRB5      30.07F
-EAGLE CREEK   MOSUNNY   72  46  39 E7        30.07F
KOKOMO *+      SUNNY     70  48  46 E6G16     30.09F
MARION +       SUNNY     71  45  39 E9        30.10F
MT COMFORT *+  SUNNY     72  34  25 NE7       30.08F
SHELBYVILLE    SUNNY     76  46  34 VRB5      30.07F
ZIONSVILLE +   SUNNY     72  47  41 E7        30.09F

$$

INZ033-034-041-042-049-050-058-059-182100-
EAST CENTRAL INDIANA

CITY           SKY/WX    TMP DP  RH WIND       PRES   REMARKS
MUNCIE         SUNNY     71  36  27 NE7       30.09F

$$

INZ060-061-067>069-081>083-085>088-182100-
SOUTHWEST INDIANA

CITY           SKY/WX    TMP DP  RH WIND       PRES   REMARKS
EVANSVILLE     SUNNY     74  49  41 VRB7      30.04F
WASHINGTON +   PTSUNNY   72  53  50 E6        30.04F

$$

INZ062-063-066-070>080-084-089>092-182100-
SOUTH CENTRAL AND SOUTHEAST INDIANA

CITY           SKY/WX    TMP DP  RH WIND       PRES   REMARKS
BLOOMINGTON    MOSUNNY   72  49  44 VRB6      30.06F

$$




USA.gov is the U.S. government's official web portal to all federal, state and local government web resources and services.